Preview of NWS' New Version of Forecast
This preview is not operational and should not be used for support decisions.

Regional Weather Roundup (RWR)

Issued by Gray - Portland, ME (GYX)

                            
000
ASUS41 KGYX 212205
RWRGYX
WEATHER ROUNDUP FOR MAINE AND NEW HAMPSHIRE
NATIONAL WEATHER SERVICE GRAY ME
600 PM EDT SAT SEP 21 2019

MEZ002-005-006-010-012-015-018-020-021-024-026-027-029-212300-
MAINE
  
CITY           SKY/WX    TMP DP  RH WIND       PRES   REMARKS
PORTLAND       FAIR      70  57  63 S10       30.14R                  
SANFORD        FAIR      74  63  68 SE5       30.14S                  
BAR HARBOR     FAIR      69  56  62 CALM      30.13S                  
WISCASSET      FAIR      75  59  57 VRB6      30.14S                  
ROCKLAND       FAIR      67  58  72 S3        30.14S                  
FRYEBURG       MOCLDY    78  61  55 CALM      30.13S                  
LEWISTONAUBURN FAIR      79  59  50 CALM      30.13S                  
AUGUSTA        FAIR      77  58  51 E3        30.14R                  
WATERVILLE     FAIR      71  62  73 CALM      30.11S                  
BANGOR         FAIR      69  52  54 CALM      30.13R                  
GREENVILLE       N/A     67  50  54 N5        30.14S                  
MILLINOCKET    FAIR      70  49  47 CALM      30.13S                  
HOULTON        FAIR      63  52  67 CALM      30.10S                  
PRESQUE ISLE   FAIR      67  47  48 NW5       30.12S                  
FRENCHVILLE    FAIR      61  43  51 N5        30.12R                  
CARIBOU        FAIR      67  43  41 N5        30.11S                  
$$

NHZ002-005-008-009-011-012-014-212300-
NEW HAMPSHIRE
  
CITY           SKY/WX    TMP DP  RH WIND       PRES   REMARKS
PORTSMOUTH     PTCLDY    73  59  60 SE7       30.12S                  
ROCHESTER      FAIR      75  60  59 S3        30.13S                  
NASHUA         FAIR      82  62  50 CALM      30.13S                  
MANCHESTER     FAIR      84  57  39 NW7       30.12S                  
CONCORD        FAIR      81  58  45 W6        30.13S                  
LACONIA        FAIR      79  61  53 W3        30.14F                  
PLYMOUTH       FAIR      77  62  59 W3        30.14S                  
BERLIN         FAIR      74  59  59 CALM      30.17R                  
WHITEFIELD     CLOUDY    76  61  59 CALM      30.17R                  
JAFFREY        FAIR      80  56  43 W3        30.19R                  
KEENE          FAIR      77  65  66 CALM      30.15S                  
LEBANON        FAIR      77  63  61 CALM      30.14S                  
MT WASHINGTON  FOG       52  52 100 W16G22      N/A  VSB 1/8          
$$

VTZ005-007-008-212300-
VERMONT
  
CITY           SKY/WX    TMP DP  RH WIND       PRES   REMARKS
ST JOHNSBURY     N/A     73  63  70 MISG      30.14S                  
MONTPELIER     FAIR      74  59  59 CALM      30.21S                  
BURLINGTON     FAIR      81  57  43 CALM      30.13F                  
$$

MAZ007-012-024-CTZ003-RIZ002-NYZ038-NYZ072-212300-
SOUTHERN NEW ENGLAND AND NY
  
CITY           SKY/WX    TMP DP  RH WIND       PRES   REMARKS
BOSTON         FAIR      72  60  66 NE6       30.14S                  
WORCESTER      FAIR      77  62  59 W5        30.18S                  
NANTUCKET      FAIR      68  60  75 SW6       30.17S                  
PROVIDENCE     FAIR      77  55  46 S6        30.16S                  
HARTFORD       FAIR      82  59  45 E7        30.14S                  
ALBANY         FAIR      80  53  39 SE5       30.15S                  
NEW YORK CITY  FAIR      83  49  30 S9        30.15S                  
$$

ANZ081-ANZ082-ANZ150-NHZ014-MEZ023>029-212300-
COASTAL MARINE OBSERVATIONS
  
STATION/POSITION TIME  TEMP    WIND        PRES    WAVE
                       AIR SEA DIR/SP/G            HT/PER
                 (UTC) (F)     (DEG/KT/KT) (MB)    (FT/S)
MOUNT DESERT ROC 2100          230/ 12/ 12 1020.2S
MATINICUS ROCK   2150   64                 1020.5R
ISLE OF SHOALS   2100   67     160/ 11/ 12 1020.2R
JEFFREYS LEDGE   2138      65                N/A     3/12
CASHES LEDGE BUO 2150   64 63  180/  2/  4 1021.2R   3/10
GEORGES BANK BUO 2150   61 59              1021.3R   3/10
$$

.............KEY..............
   WCI - WIND CHILL
   TC  - TEMPERATURE IN CELSIUS
   VSB - VISIBILITY IN MILES
   HX  - HEAT INDEX
   FAIR- INDICATES FEW OR NO CLOUDS BELOW 12,000 FT, WITH NO 
         SIGNIFICANT WEATHER AND/OR OBSTRUCTIONS TO VISIBILITY.